When you browse on this site, cookies collect data to enhance your experience and personalize the content and advertising you see.
Visit our Privacy Policy to learn more. By continuing to use the site, you agree to this use of cookies and data.
EN

Hourly Weather Bekescsaba

Today, 9 July, Thursday

Time Temperature Precipitation Wind Pressure Humidity
00:00 +17°C° 0 mm 2 mps 756 mmHg 69%
01:00 +16°C° 0 mm 2 mps 756 mmHg 72%
02:00 +16°C° 0 mm 2 mps 756 mmHg 75%
03:00 +16°C° 0 mm 2 mps 756 mmHg 78%
04:00 +15°C° 0 mm 2 mps 756 mmHg 80%
05:00 +17°C° 0 mm 2 mps 756 mmHg 78%
06:00 +18°C° 0 mm 2 mps 756 mmHg 76%
07:00 +20°C° 0 mm 3 mps 756 mmHg 74%
08:00 +21°C° 0 mm 3 mps 757 mmHg 69%
09:00 +24°C° 0 mm 3 mps 757 mmHg 63%
10:00 +25°C° 0 mm 3 mps 757 mmHg 58%
11:00 +26°C° 0 mm 3 mps 757 mmHg 55%
12:00 +27°C° 0 mm 2 mps 757 mmHg 53%
13:00 +28°C° 0 mm 2 mps 757 mmHg 50%
14:00 +28°C° 0 mm 2 mps 756 mmHg 50%
15:00 +28°C° 0 mm 2 mps 756 mmHg 50%
16:00 +28°C° 0 mm 1 mps 756 mmHg 51%
17:00 +27°C° 0 mm 1 mps 756 mmHg 56%
18:00 +26°C° 0 mm 1 mps 755 mmHg 61%
19:00 +24°C° 0 mm 2 mps 755 mmHg 66%
20:00 +23°C° 0 mm 2 mps 755 mmHg 67%
21:00 +21°C° 0 mm 2 mps 756 mmHg 68%
22:00 +21°C° 0 mm 2 mps 756 mmHg 70%
23:00 +20°C° 0 mm 2 mps 756 mmHg 71%

Tomorrow, 10 July, Friday

Time Temperature Precipitation Wind Pressure Humidity
00:00 +20°C° 0 mm 2 mps 756 mmHg 73%
01:00 +19°C° 0 mm 2 mps 755 mmHg 75%
02:00 +19°C° 0 mm 2 mps 755 mmHg 77%
03:00 +18°C° 0 mm 2 mps 755 mmHg 78%
04:00 +19°C° 0 mm 1 mps 755 mmHg 79%
05:00 +20°C° 0 mm 2 mps 755 mmHg 76%
06:00 +21°C° 0 mm 2 mps 755 mmHg 73%
07:00 +24°C° 0 mm 2 mps 756 mmHg 70%
08:00 +26°C° 0 mm 2 mps 756 mmHg 65%
09:00 +27°C° 0 mm 2 mps 756 mmHg 61%
10:00 +29°C° 0 mm 2 mps 756 mmHg 56%
11:00 +30°C° 0 mm 2 mps 755 mmHg 53%
12:00 +31°C° 0 mm 2 mps 755 mmHg 50%
13:00 +31°C° 0 mm 2 mps 755 mmHg 47%
14:00 +31°C° 0 mm 2 mps 754 mmHg 48%
15:00 +31°C° 0 mm 2 mps 754 mmHg 48%
16:00 +32°C° 0 mm 2 mps 754 mmHg 49%
17:00 +30°C° 0 mm 1 mps 753 mmHg 54%
18:00 +28°C° 0 mm 1 mps 753 mmHg 59%
19:00 +27°C° 0 mm 1 mps 753 mmHg 64%
20:00 +26°C° 0 mm 1 mps 753 mmHg 64%
21:00 +25°C° 0 mm 2 mps 753 mmHg 65%
22:00 +25°C° 0 mm 2 mps 753 mmHg 66%
23:00 +24°C° 0 mm 2 mps 753 mmHg 68%

Day after tomorrow, 11 July, Saturday

Time Temperature Precipitation Wind Pressure Humidity
00:00 +24°C° 0 mm 2 mps 753 mmHg 71%
01:00 +23°C° 0 mm 1 mps 753 mmHg 73%
02:00 +23°C° 0 mm 2 mps 753 mmHg 75%
03:00 +21°C° 0 mm 2 mps 753 mmHg 77%
04:00 +21°C° 0 mm 2 mps 753 mmHg 78%
05:00 +23°C° 0 mm 2 mps 753 mmHg 75%
06:00 +25°C° 0 mm 2 mps 753 mmHg 71%
07:00 +26°C° 0 mm 2 mps 753 mmHg 68%
08:00 +28°C° 0 mm 2 mps 753 mmHg 63%
09:00 +29°C° 0 mm 2 mps 753 mmHg 58%
10:00 +30°C° 0 mm 2 mps 753 mmHg 53%
11:00 +31°C° 0 mm 2 mps 753 mmHg 51%
12:00 +32°C° 0 mm 2 mps 752 mmHg 49%
13:00 +32°C° 0 mm 2 mps 752 mmHg 47%
14:00 +32°C° 0 mm 2 mps 752 mmHg 48%
15:00 +32°C° 0 mm 2 mps 751 mmHg 50%
16:00 +32°C° 0 mm 2 mps 751 mmHg 51%
17:00 +30°C° 0 mm 2 mps 751 mmHg 56%
18:00 +29°C° 0 mm 2 mps 751 mmHg 61%
19:00 +27°C° 0 mm 1 mps 751 mmHg 65%
20:00 +26°C° 0.1 mm 1 mps 751 mmHg 68%
21:00 +25°C° 0.1 mm 2 mps 752 mmHg 70%
22:00 +24°C° 0.1 mm 2 mps 752 mmHg 73%
23:00 +23°C° 0.1 mm 2 mps 752 mmHg 78%

12 July, Sunday

Time Temperature Precipitation Wind Pressure Humidity
00:00 +21°C° 0.1 mm 3 mps 752 mmHg 84%
01:00 +20°C° 0.1 mm 3 mps 752 mmHg 89%
02:00 +19°C° 0 mm 3 mps 752 mmHg 90%
03:00 +18°C° 0 mm 3 mps 752 mmHg 91%
04:00 +18°C° 0 mm 3 mps 752 mmHg 92%
05:00 +18°C° 0.2 mm 3 mps 753 mmHg 91%
06:00 +18°C° 0.2 mm 3 mps 753 mmHg 89%
07:00 +18°C° 0.2 mm 3 mps 753 mmHg 88%
08:00 +18°C° 0.8 mm 4 mps 754 mmHg 88%
09:00 +18°C° 0.8 mm 4 mps 754 mmHg 89%
10:00 +17°C° 0.8 mm 4 mps 754 mmHg 90%
11:00 +16°C° 0.1 mm 5 mps 754 mmHg 89%
12:00 +16°C° 0.1 mm 5 mps 755 mmHg 89%
13:00 +15°C° 0.1 mm 6 mps 755 mmHg 88%
14:00 +15°C° 0 mm 6 mps 755 mmHg 86%
15:00 +15°C° 0 mm 6 mps 756 mmHg 83%
16:00 +15°C° 0 mm 7 mps 756 mmHg 81%
17:00 +15°C° 0 mm 6 mps 756 mmHg 80%
18:00 +14°C° 0 mm 6 mps 757 mmHg 79%
19:00 +14°C° 0 mm 5 mps 757 mmHg 78%
20:00 +13°C° 0 mm 5 mps 757 mmHg 79%
21:00 +13°C° 0 mm 4 mps 757 mmHg 80%
22:00 +12°C° 0 mm 4 mps 758 mmHg 81%
23:00 +12°C° 0 mm 4 mps 758 mmHg 81%

13 July, Monday

Time Temperature Precipitation Wind Pressure Humidity
00:00 +12°C° 0 mm 3 mps 758 mmHg 82%
01:00 +11°C° 0 mm 3 mps 758 mmHg 83%
02:00 +11°C° 0 mm 3 mps 758 mmHg 85%
03:00 +11°C° 0 mm 3 mps 758 mmHg 87%
04:00 +11°C° 0 mm 3 mps 757 mmHg 89%
05:00 +12°C° 0 mm 3 mps 757 mmHg 84%
06:00 +14°C° 0 mm 4 mps 758 mmHg 80%
07:00 +15°C° 0 mm 4 mps 758 mmHg 75%
08:00 +18°C° 0 mm 4 mps 757 mmHg 70%
09:00 +19°C° 0 mm 4 mps 757 mmHg 64%
10:00 +20°C° 0 mm 4 mps 757 mmHg 59%
11:00 +21°C° 0.1 mm 4 mps 757 mmHg 56%
12:00 +22°C° 0.1 mm 4 mps 757 mmHg 54%
13:00 +22°C° 0.1 mm 4 mps 756 mmHg 52%
14:00 +22°C° 0 mm 4 mps 756 mmHg 52%
15:00 +22°C° 0 mm 4 mps 756 mmHg 53%
16:00 +22°C° 0 mm 4 mps 755 mmHg 53%
17:00 +20°C° 0 mm 3 mps 755 mmHg 59%
18:00 +19°C° 0 mm 3 mps 755 mmHg 65%
19:00 +18°C° 0 mm 2 mps 755 mmHg 71%
20:00 +17°C° 0 mm 2 mps 755 mmHg 71%
21:00 +16°C° 0 mm 2 mps 755 mmHg 71%
22:00 +15°C° 0 mm 2 mps 756 mmHg 71%
23:00 +15°C° 0 mm 1 mps 755 mmHg 72%

14 July, Tuesday

Time Temperature Precipitation Wind Pressure Humidity
00:00 +14°C° 0 mm 1 mps 755 mmHg 74%
01:00 +14°C° 0 mm 1 mps 755 mmHg 75%
02:00 +13°C° 0 mm 1 mps 755 mmHg 77%
03:00 +12°C° 0 mm 0 mps 755 mmHg 78%
04:00 +12°C° 0 mm 0 mps 755 mmHg 80%
05:00 +13°C° 0 mm 0 mps 755 mmHg 76%
06:00 +15°C° 0 mm 0 mps 755 mmHg 71%
07:00 +19°C° 0 mm 1 mps 755 mmHg 67%
08:00 +20°C° 0 mm 1 mps 755 mmHg 63%
09:00 +21°C° 0 mm 2 mps 755 mmHg 59%
10:00 +23°C° 0 mm 2 mps 755 mmHg 56%
11:00 +24°C° 0 mm 2 mps 755 mmHg 53%
12:00 +24°C° 0 mm 2 mps 754 mmHg 51%
13:00 +25°C° 0 mm 2 mps 754 mmHg 48%
14:00 +25°C° 0 mm 2 mps 754 mmHg 49%
15:00 +25°C° 0 mm 2 mps 754 mmHg 50%
16:00 +25°C° 0 mm 2 mps 754 mmHg 51%
17:00 +24°C° 0 mm 2 mps 754 mmHg 56%
18:00 +22°C° 0 mm 1 mps 754 mmHg 62%
19:00 +21°C° 0 mm 1 mps 754 mmHg 67%
20:00 +20°C° 0 mm 1 mps 754 mmHg 69%
21:00 +19°C° 0 mm 1 mps 754 mmHg 72%
22:00 +18°C° 0 mm 1 mps 755 mmHg 74%
23:00 +16°C° 0 mm 1 mps 755 mmHg 75%
Show more